Time,TemperatureF,DewpointF,PressureIn,WindDirection,WindDirectionDegrees,WindSpeedMPH,WindSpeedGustMPH,Humidity,HourlyPrecipIn,Conditions,Clouds,dailyrainin,SoftwareType,DateUTC
2013-02-11 00:06:00,36.7,23.0,30.20,SSE,168,0.0,2.0,58,0.00,,,0.00,weatherlink.com 1.10,2013-02-11 05:06:00,
2013-02-11 00:21:00,36.9,24.0,30.21,SSE,158,0.0,2.0,59,0.00,,,0.00,weatherlink.com 1.10,2013-02-11 05:21:00,
2013-02-11 00:36:00,37.0,24.0,30.20,SSE,158,0.0,4.0,60,0.00,,,0.00,weatherlink.com 1.10,2013-02-11 05:36:00,
2013-02-11 00:51:00,37.2,24.0,30.19,SE,145,2.0,3.0,60,0.00,,,0.00,weatherlink.com 1.10,2013-02-11 05:51:00,
2013-02-11 01:06:00,37.4,25.0,30.19,South,171,5.0,5.0,61,0.00,,,0.00,weatherlink.com 1.10,2013-02-11 06:06:00,
2013-02-11 01:22:00,37.3,26.0,30.18,SSW,200,0.0,2.0,65,0.00,,,0.00,weatherlink.com 1.10,2013-02-11 06:22:00,
2013-02-11 01:36:00,36.8,28.0,30.17,SSE,161,0.0,2.0,71,0.00,,,0.00,weatherlink.com 1.10,2013-02-11 06:36:00,
2013-02-11 01:52:00,36.1,30.0,30.16,SSE,161,0.0,2.0,77,0.01,,,0.01,weatherlink.com 1.10,2013-02-11 06:52:00,
2013-02-11 02:06:00,35.5,30.0,30.16,SSE,161,0.0,1.0,81,0.02,,,0.02,weatherlink.com 1.10,2013-02-11 07:06:00,
2013-02-11 02:21:00,35.0,31.0,30.16,SSE,161,0.0,1.0,85,0.04,,,0.04,weatherlink.com 1.10,2013-02-11 07:21:00,
2013-02-11 02:36:00,34.4,31.0,30.14,SSE,161,0.0,0.0,87,0.07,,,0.07,weatherlink.com 1.10,2013-02-11 07:36:00,
2013-02-11 02:52:00,34.4,31.0,30.13,SSE,161,0.0,0.0,88,0.07,,,0.08,weatherlink.com 1.10,2013-02-11 07:52:00,
2013-02-11 03:07:00,34.4,32.0,30.12,SSE,161,0.0,0.0,89,0.09,,,0.11,weatherlink.com 1.10,2013-02-11 08:07:00,
2013-02-11 03:22:00,34.2,32.0,30.11,SSE,161,0.0,0.0,90,0.11,,,0.15,weatherlink.com 1.10,2013-02-11 08:22:00,
2013-02-11 03:37:00,34.1,32.0,30.10,SSE,161,0.0,0.0,90,0.11,,,0.18,weatherlink.com 1.10,2013-02-11 08:37:00,
2013-02-11 03:52:00,34.1,32.0,30.09,SSE,161,0.0,0.0,91,0.11,,,0.20,weatherlink.com 1.10,2013-02-11 08:52:00,
2013-02-11 04:07:00,34.2,32.0,30.07,SSE,161,0.0,0.0,91,0.13,,,0.24,weatherlink.com 1.10,2013-02-11 09:07:00,
2013-02-11 04:22:00,34.2,32.0,30.06,SSE,161,0.0,0.0,91,0.12,,,0.27,weatherlink.com 1.10,2013-02-11 09:22:00,
2013-02-11 04:37:00,34.4,32.0,30.06,SSE,161,0.0,0.0,92,0.12,,,0.30,weatherlink.com 1.10,2013-02-11 09:37:00,
2013-02-11 04:52:00,34.4,33.0,30.06,SSE,161,0.0,0.0,93,0.13,,,0.33,weatherlink.com 1.10,2013-02-11 09:52:00,
2013-02-11 05:07:00,34.4,33.0,30.05,SSE,161,0.0,0.0,93,0.11,,,0.35,weatherlink.com 1.10,2013-02-11 10:07:00,
2013-02-11 05:22:00,34.7,33.0,30.04,SSE,161,0.0,0.0,93,0.11,,,0.38,weatherlink.com 1.10,2013-02-11 10:22:00,
2013-02-11 05:37:00,34.8,33.0,30.03,SSE,161,0.0,0.0,93,0.11,,,0.41,weatherlink.com 1.10,2013-02-11 10:37:00,
2013-02-11 05:52:00,35.0,34.0,30.03,SSE,161,0.0,0.0,94,0.08,,,0.41,weatherlink.com 1.10,2013-02-11 10:52:00,
2013-02-11 06:07:00,35.1,34.0,30.02,SSE,161,0.0,0.0,94,0.05,,,0.41,weatherlink.com 1.10,2013-02-11 11:07:00,
2013-02-11 06:22:00,35.0,34.0,30.02,SSE,161,0.0,0.0,94,0.03,,,0.41,weatherlink.com 1.10,2013-02-11 11:22:00,
2013-02-11 06:37:00,35.0,34.0,30.01,SSE,161,0.0,0.0,94,0.00,,,0.41,weatherlink.com 1.10,2013-02-11 11:37:00,
2013-02-11 06:52:00,35.0,34.0,30.01,SSE,161,0.0,0.0,94,0.00,,,0.41,weatherlink.com 1.10,2013-02-11 11:52:00,
2013-02-11 07:07:00,35.1,34.0,30.00,SSE,161,0.0,0.0,94,0.00,,,0.41,weatherlink.com 1.10,2013-02-11 12:07:00,
2013-02-11 07:22:00,35.3,34.0,29.99,SSE,161,0.0,1.0,94,0.00,,,0.41,weatherlink.com 1.10,2013-02-11 12:22:00,
2013-02-11 07:37:00,35.6,34.0,29.98,SSE,161,0.0,0.0,95,0.00,,,0.41,weatherlink.com 1.10,2013-02-11 12:37:00,
2013-02-11 07:52:00,36.5,35.0,29.98,SSE,155,1.0,4.0,95,0.00,,,0.41,weatherlink.com 1.10,2013-02-11 12:52:00,
2013-02-11 08:07:00,37.5,36.0,29.98,SSE,166,1.0,4.0,95,0.00,,,0.41,weatherlink.com 1.10,2013-02-11 13:07:00,
2013-02-11 08:22:00,38.0,37.0,29.97,South,180,0.0,2.0,95,0.00,,,0.41,weatherlink.com 1.10,2013-02-11 13:22:00,
2013-02-11 08:37:00,38.4,37.0,29.96,West,273,3.0,4.0,95,0.00,,,0.41,weatherlink.com 1.10,2013-02-11 13:37:00,
2013-02-11 08:53:00,38.6,37.0,29.95,WSW,237,2.0,2.0,95,0.00,,,0.41,weatherlink.com 1.10,2013-02-11 13:53:00,
2013-02-11 09:07:00,39.0,38.0,29.95,South,178,2.0,4.0,96,0.00,,,0.41,weatherlink.com 1.10,2013-02-11 14:07:00,
2013-02-11 09:23:00,39.5,39.0,29.95,WSW,250,0.0,4.0,96,0.00,,,0.41,weatherlink.com 1.10,2013-02-11 14:23:00,
2013-02-11 09:38:00,40.1,39.0,29.95,SW,234,0.0,5.0,96,0.00,,,0.41,weatherlink.com 1.10,2013-02-11 14:38:00,
2013-02-11 09:53:00,40.5,39.0,29.95,WSW,243,0.0,6.0,95,0.00,,,0.41,weatherlink.com 1.10,2013-02-11 14:53:00,
2013-02-11 10:07:00,40.8,40.0,29.92,West,260,0.0,4.0,95,0.00,,,0.41,weatherlink.com 1.10,2013-02-11 15:07:00,
2013-02-11 10:22:00,41.4,40.0,29.91,NW,313,2.0,5.0,96,0.00,,,0.41,weatherlink.com 1.10,2013-02-11 15:22:00,
2013-02-11 10:38:00,41.7,40.0,29.91,SW,235,0.0,6.0,95,0.00,,,0.41,weatherlink.com 1.10,2013-02-11 15:38:00,
2013-02-11 10:53:00,42.0,41.0,29.90,West,276,1.0,5.0,95,0.00,,,0.41,weatherlink.com 1.10,2013-02-11 15:53:00,
2013-02-11 11:08:00,42.5,41.0,29.89,SW,235,3.0,8.0,95,0.00,,,0.41,weatherlink.com 1.10,2013-02-11 16:08:00,
2013-02-11 11:23:00,42.9,42.0,29.88,West,281,1.0,8.0,95,0.00,,,0.41,weatherlink.com 1.10,2013-02-11 16:23:00,
2013-02-11 11:38:00,43.4,42.0,29.86,SSE,156,0.0,8.0,95,0.00,,,0.41,weatherlink.com 1.10,2013-02-11 16:38:00,
2013-02-11 11:53:00,43.6,42.0,29.86,West,259,3.0,9.0,95,0.00,,,0.41,weatherlink.com 1.10,2013-02-11 16:53:00,
2013-02-11 12:08:00,44.0,43.0,29.84,SW,227,1.0,6.0,95,0.00,,,0.41,weatherlink.com 1.10,2013-02-11 17:08:00,
2013-02-11 12:23:00,44.6,43.0,29.82,WSW,252,2.0,6.0,94,0.00,,,0.41,weatherlink.com 1.10,2013-02-11 17:23:00,
2013-02-11 12:38:00,45.0,43.0,29.82,WSW,257,3.0,6.0,94,0.00,,,0.41,weatherlink.com 1.10,2013-02-11 17:38:00,
2013-02-11 12:53:00,45.0,43.0,29.80,SW,236,2.0,6.0,93,0.00,,,0.41,weatherlink.com 1.10,2013-02-11 17:53:00,
2013-02-11 13:08:00,45.4,44.0,29.79,WSW,238,1.0,7.0,93,0.00,,,0.41,weatherlink.com 1.10,2013-02-11 18:08:00,
2013-02-11 13:23:00,45.7,44.0,29.78,West,271,4.0,8.0,93,0.00,,,0.41,weatherlink.com 1.10,2013-02-11 18:23:00,
2013-02-11 13:38:00,46.2,44.0,29.77,West,274,2.0,6.0,93,0.00,,,0.41,weatherlink.com 1.10,2013-02-11 18:38:00,
2013-02-11 13:53:00,46.9,45.0,29.77,West,270,3.0,6.0,93,0.00,,,0.41,weatherlink.com 1.10,2013-02-11 18:53:00,
2013-02-11 14:08:00,47.5,45.0,29.76,WSW,250,1.0,7.0,92,0.00,,,0.41,weatherlink.com 1.10,2013-02-11 19:08:00,
2013-02-11 14:23:00,47.9,46.0,29.74,West,273,0.0,6.0,92,0.00,,,0.41,weatherlink.com 1.10,2013-02-11 19:23:00,
2013-02-11 14:38:00,48.5,46.0,29.73,WSW,258,0.0,3.0,92,0.00,,,0.41,weatherlink.com 1.10,2013-02-11 19:38:00,
2013-02-11 14:54:00,49.0,47.0,29.72,West,259,0.0,2.0,92,0.00,,,0.41,weatherlink.com 1.10,2013-02-11 19:54:00,
2013-02-11 15:08:00,49.6,47.0,29.72,WSW,250,0.0,4.0,91,0.00,,,0.41,weatherlink.com 1.10,2013-02-11 20:08:00,
2013-02-11 15:23:00,50.3,48.0,29.71,West,264,0.0,3.0,91,0.00,,,0.41,weatherlink.com 1.10,2013-02-11 20:23:00,
2013-02-11 15:38:00,51.0,48.0,29.71,West,263,0.0,3.0,90,0.00,,,0.41,weatherlink.com 1.10,2013-02-11 20:38:00,
2013-02-11 15:53:00,51.9,49.0,29.70,WSW,252,0.0,3.0,90,0.00,,,0.41,weatherlink.com 1.10,2013-02-11 20:53:00,
2013-02-11 16:09:00,52.5,49.0,29.70,WSW,237,0.0,3.0,89,0.00,,,0.41,weatherlink.com 1.10,2013-02-11 21:09:00,
2013-02-11 16:24:00,52.9,50.0,29.69,SW,236,0.0,3.0,89,0.00,,,0.41,weatherlink.com 1.10,2013-02-11 21:24:00,
2013-02-11 16:39:00,53.0,50.0,29.68,SW,236,0.0,2.0,88,0.00,,,0.41,weatherlink.com 1.10,2013-02-11 21:39:00,
2013-02-11 16:54:00,53.0,50.0,29.68,SW,234,0.0,1.0,88,0.00,,,0.41,weatherlink.com 1.10,2013-02-11 21:54:00,
2013-02-11 17:09:00,52.9,50.0,29.67,SW,234,0.0,0.0,88,0.00,,,0.41,weatherlink.com 1.10,2013-02-11 22:09:00,
2013-02-11 17:24:00,52.0,49.0,29.67,SW,234,0.0,1.0,89,0.00,,,0.41,weatherlink.com 1.10,2013-02-11 22:24:00,
2013-02-11 17:39:00,51.3,49.0,29.66,SW,234,0.0,0.0,90,0.00,,,0.41,weatherlink.com 1.10,2013-02-11 22:39:00,
2013-02-11 17:54:00,50.2,47.0,29.66,SW,234,0.0,0.0,90,0.00,,,0.41,weatherlink.com 1.10,2013-02-11 22:54:00,
2013-02-11 18:09:00,49.5,47.0,29.66,SW,235,0.0,0.0,91,0.00,,,0.41,weatherlink.com 1.10,2013-02-11 23:09:00,
2013-02-11 18:24:00,48.6,46.0,29.67,SW,235,0.0,0.0,91,0.00,,,0.41,weatherlink.com 1.10,2013-02-11 23:24:00,
2013-02-11 18:39:00,47.8,46.0,29.66,SW,235,0.0,0.0,92,0.00,,,0.41,weatherlink.com 1.10,2013-02-11 23:39:00,
2013-02-11 18:54:00,47.4,46.0,29.67,SW,235,0.0,0.0,93,0.00,,,0.41,weatherlink.com 1.10,2013-02-11 23:54:00,
2013-02-11 19:09:00,47.2,46.0,29.67,SW,235,0.0,0.0,94,0.00,,,0.41,weatherlink.com 1.10,2013-02-12 00:09:00,
2013-02-11 19:24:00,46.7,45.0,29.68,SW,234,0.0,0.0,93,0.00,,,0.41,weatherlink.com 1.10,2013-02-12 00:24:00,
2013-02-11 19:39:00,45.6,44.0,29.68,SW,234,0.0,0.0,93,0.00,,,0.41,weatherlink.com 1.10,2013-02-12 00:39:00,
2013-02-11 19:54:00,44.9,43.0,29.68,SW,235,0.0,0.0,94,0.00,,,0.41,weatherlink.com 1.10,2013-02-12 00:54:00,
2013-02-11 20:09:00,44.6,43.0,29.68,SW,235,0.0,0.0,94,0.00,,,0.41,weatherlink.com 1.10,2013-02-12 01:09:00,
2013-02-11 20:24:00,43.4,42.0,29.69,SW,235,0.0,1.0,94,0.00,,,0.41,weatherlink.com 1.10,2013-02-12 01:24:00,
2013-02-11 20:39:00,42.2,40.0,29.69,SW,235,0.0,0.0,93,0.00,,,0.41,weatherlink.com 1.10,2013-02-12 01:39:00,
2013-02-11 20:54:00,50.1,35.0,29.69,WNW,292,8.0,14.0,57,0.00,,,0.41,weatherlink.com 1.10,2013-02-12 01:54:00,
2013-02-11 21:09:00,56.5,33.0,29.71,WNW,303,8.0,10.0,42,0.00,,,0.41,weatherlink.com 1.10,2013-02-12 02:09:00,
2013-02-11 21:24:00,56.7,32.0,29.72,NW,306,5.0,13.0,39,0.00,,,0.41,weatherlink.com 1.10,2013-02-12 02:24:00,
2013-02-11 21:39:00,56.9,31.0,29.71,WNW,288,7.0,14.0,38,0.00,,,0.41,weatherlink.com 1.10,2013-02-12 02:39:00,
2013-02-11 21:54:00,55.9,32.0,29.73,NW,305,5.0,10.0,40,0.00,,,0.41,weatherlink.com 1.10,2013-02-12 02:54:00,
2013-02-11 22:09:00,53.9,34.0,29.75,West,268,1.0,4.0,48,0.00,,,0.41,weatherlink.com 1.10,2013-02-12 03:09:00,
2013-02-11 22:24:00,52.4,34.0,29.75,WNW,300,6.0,15.0,50,0.00,,,0.41,weatherlink.com 1.10,2013-02-12 03:24:00,
2013-02-11 22:39:00,51.8,35.0,29.77,NW,310,2.0,9.0,53,0.00,,,0.41,weatherlink.com 1.10,2013-02-12 03:39:00,
2013-02-11 22:54:00,50.8,35.0,29.78,WNW,300,0.0,12.0,55,0.00,,,0.41,weatherlink.com 1.10,2013-02-12 03:54:00,
2013-02-11 23:09:00,49.8,35.0,29.78,WNW,294,0.0,1.0,58,0.00,,,0.41,weatherlink.com 1.10,2013-02-12 04:09:00,
2013-02-11 23:24:00,48.3,35.0,29.79,WNW,302,2.0,3.0,61,0.00,,,0.41,weatherlink.com 1.10,2013-02-12 04:24:00,
2013-02-11 23:39:00,47.2,35.0,29.79,WNW,302,0.0,3.0,63,0.00,,,0.41,weatherlink.com 1.10,2013-02-12 04:39:00,
2013-02-11 23:54:00,46.2,35.0,29.80,NW,306,1.0,2.0,64,0.00,,,0.41,weatherlink.com 1.10,2013-02-12 04:54:00,